Voltar ao catálogo

COSMOS 2499 DEB

AtivoPO
NORAD 56567·DEBRIS·🇷🇺 Russia

Lançado May 23, 2014 de Plesetsk Cosmodrome

Loading…

Próximas Passagens (próximas 24 horas)

TLE

AtualizadoSource: Space-Track

Época: Sep 14, 2026, 15:49 UTC

1 56567U 14028BA  26257.65942305  .00006366  00000-0  23874-1 0  9996
2 56567  82.6251 224.3862 0176279 144.4179 216.8833 12.86463348170480

Acompanhe COSMOS 2499 DEB em tempo real com AllMySat

Download on the App Store